Location: Coleto Creek Park and Reservoir
(28.7196°N, 97.1740°W)
Time: 12:23:32
(UTC-05:00)

HST - Visible Passes

Search period start: 24 April 2014 00:00
Search period end: 04 May 2014 00:00
Orbit: 548 x 553 km, 28.5° (Epoch: 23 April)

Date Brightness Start Highest point End Pass type
(mag) Time Alt. Az. Time Alt. Az. Time Alt. Az.
24 Apr 1.3 21:11:29 10° W 21:15:31 47° SSW 21:17:05 31° SE visible
25 Apr 1.7 21:05:05 10° W 21:08:58 37° SSW 21:10:56 23° SSE visible
26 Apr 2.1 20:58:44 10° W 21:02:23 29° SSW 21:04:49 17° SSE visible
27 Apr 2.5 20:52:29 10° WSW 20:55:47 23° SSW 20:58:43 12° SSE visible
28 Apr 2.9 20:46:23 10° WSW 20:49:10 17° SSW 20:51:56 10° SSE visible
29 Apr 3.2 20:40:39 10° SW 20:42:31 13° SSW 20:44:22 10° S visible
